LIC0229 LEBA-LELN

Flight info

Callsign LIC0229
Flight time 2h 24m
Altitude 10000
Route PIPHU N871 VTB L155 NVS/N0185F110 L155 ZMR
Aircraft PA34/L-SDFGRY/S

Departure

Time 2026-05-04 13:05
Airport Córdoba Airport (LEBA)

Arrival

Time 2026-05-04 15:30
Airport León Int'l Airport (LELN)
Time Latitude Longitude Altitude Speed Heading
2026-05-04 12:07 37.84377 -4.84457 300 ft 0 kts 30°
2026-05-04 12:59 37.84375 -4.84459 300 ft 2 kts 30°
2026-05-04 13:00 37.84360 -4.84466 302 ft 2 kts 349°
2026-05-04 13:00 37.84352 -4.84457 300 ft 0 kts 302°
2026-05-04 13:01 37.84372 -4.84487 301 ft 10 kts
2026-05-04 13:02 37.84452 -4.84440 300 ft 11 kts 352°
2026-05-04 13:02 37.84501 -4.84541 300 ft 16 kts 297°
2026-05-04 13:02 37.84507 -4.84552 299 ft 0 kts 301°
2026-05-04 13:02 37.84529 -4.84605 297 ft 16 kts 295°
2026-05-04 13:03 37.84617 -4.84594 297 ft 20 kts 26°
2026-05-04 13:03 37.84756 -4.84502 295 ft 14 kts 29°
2026-05-04 13:03 37.84853 -4.84429 292 ft 17 kts 25°
2026-05-04 13:03 37.84954 -4.84364 292 ft 14 kts 39°
2026-05-04 13:04 37.85037 -4.84302 291 ft 15 kts 30°
2026-05-04 13:04 37.85126 -4.84204 294 ft 12 kts 52°
2026-05-04 13:04 37.85098 -4.84261 293 ft 10 kts 212°
2026-05-04 13:04 37.84997 -4.84333 293 ft 45 kts 211°
2026-05-04 13:05 37.84549 -4.84637 401 ft 87 kts 213°
2026-05-04 13:05 37.83990 -4.85056 732 ft 96 kts 214°
2026-05-04 13:05 37.83380 -4.85528 1126 ft 104 kts 213°
2026-05-04 13:05 37.82760 -4.86070 1561 ft 110 kts 219°
2026-05-04 13:06 37.82062 -4.86516 2035 ft 108 kts 212°
2026-05-04 13:06 37.81421 -4.86979 2523 ft 106 kts 213°
2026-05-04 13:06 37.80778 -4.87425 3000 ft 105 kts 215°
2026-05-04 13:06 37.80127 -4.87845 3479 ft 103 kts 214°
2026-05-04 13:07 37.79491 -4.88268 3920 ft 104 kts 214°
2026-05-04 13:07 37.78843 -4.88704 4371 ft 107 kts 214°
2026-05-04 13:07 37.78177 -4.89153 4829 ft 110 kts 212°
2026-05-04 13:07 37.77513 -4.89621 5272 ft 110 kts 214°
2026-05-04 13:08 37.76846 -4.90094 5722 ft 111 kts 214°
2026-05-04 13:08 37.76099 -4.90335 6134 ft 121 kts 171°
2026-05-04 13:08 37.75518 -4.89557 6544 ft 130 kts 112°
2026-05-04 13:08 37.75184 -4.88493 6984 ft 130 kts 117°
2026-05-04 13:09 37.74846 -4.87450 7408 ft 126 kts 114°
2026-05-04 13:09 37.74528 -4.86463 7830 ft 117 kts 115°
2026-05-04 13:09 37.74241 -4.85537 8212 ft 113 kts 115°
2026-05-04 13:09 37.73948 -4.84595 8512 ft 118 kts 114°
2026-05-04 13:10 37.73666 -4.83592 8798 ft 125 kts 113°
2026-05-04 13:10 37.73466 -4.82891 8969 ft 131 kts 113°
2026-05-04 13:10 37.73153 -4.81786 9245 ft 136 kts 113°
2026-05-04 13:10 37.72831 -4.80637 9519 ft 141 kts 113°
2026-05-04 13:11 37.72502 -4.79461 9788 ft 144 kts 112°
2026-05-04 13:11 37.72163 -4.78260 10047 ft 147 kts 113°
2026-05-04 13:11 37.71820 -4.77044 10254 ft 148 kts 113°
2026-05-04 13:11 37.71453 -4.75741 10239 ft 168 kts 113°
2026-05-04 13:12 37.71034 -4.74285 10136 ft 184 kts 113°
2026-05-04 13:12 37.70582 -4.72734 10019 ft 192 kts 113°
2026-05-04 13:12 37.70120 -4.71153 9976 ft 191 kts 113°
2026-05-04 13:12 37.69662 -4.69582 9983 ft 190 kts 113°
2026-05-04 13:13 37.69206 -4.68023 9982 ft 189 kts 113°
2026-05-04 13:13 37.69069 -4.66392 9960 ft 190 kts 76°
2026-05-04 13:13 37.69765 -4.65058 9965 ft 180 kts 31°
2026-05-04 13:13 37.70901 -4.64625 9968 ft 168 kts 356°
2026-05-04 13:14 37.72060 -4.64417 9999 ft 172 kts
2026-05-04 13:14 37.73185 -4.63840 10005 ft 177 kts 18°
2026-05-04 13:14 37.74275 -4.63182 10004 ft 169 kts 18°
2026-05-04 13:14 37.75312 -4.62564 10000 ft 162 kts 18°
2026-05-04 13:15 37.76326 -4.61974 9993 ft 159 kts 17°
2026-05-04 13:15 37.77324 -4.61392 9990 ft 157 kts 17°
2026-05-04 13:15 37.78310 -4.60817 9989 ft 155 kts 17°
2026-05-04 13:15 37.79287 -4.60247 9987 ft 154 kts 17°
2026-05-04 13:16 37.80258 -4.59681 9988 ft 154 kts 17°
2026-05-04 13:16 37.81213 -4.59123 9989 ft 153 kts 17°
2026-05-04 13:16 37.82185 -4.58553 9990 ft 151 kts 17°
2026-05-04 13:16 37.83130 -4.58003 9992 ft 152 kts 18°
2026-05-04 13:17 37.84088 -4.57442 9990 ft 152 kts 17°
2026-05-04 13:17 37.85047 -4.56882 9989 ft 152 kts 17°
2026-05-04 13:17 37.86001 -4.56323 9986 ft 150 kts 17°
2026-05-04 13:17 37.86946 -4.55771 9991 ft 150 kts 17°
2026-05-04 13:18 37.87896 -4.55215 9990 ft 151 kts 17°
2026-05-04 13:18 37.88851 -4.54656 9996 ft 151 kts 17°
2026-05-04 13:18 37.89808 -4.54095 9994 ft 152 kts 17°
2026-05-04 13:18 37.90766 -4.53533 9995 ft 152 kts 17°
2026-05-04 13:19 37.91726 -4.52970 9997 ft 152 kts 17°
2026-05-04 13:19 37.92688 -4.52406 9996 ft 152 kts 17°
2026-05-04 13:19 37.93649 -4.51843 9994 ft 153 kts 17°
2026-05-04 13:19 37.94612 -4.51278 9994 ft 152 kts 17°
2026-05-04 13:20 37.95573 -4.50714 9999 ft 152 kts 18°
2026-05-04 13:20 37.96535 -4.50150 9997 ft 153 kts 18°
2026-05-04 13:20 37.97498 -4.49585 9996 ft 152 kts 18°
2026-05-04 13:20 37.98458 -4.49020 9995 ft 152 kts 18°
2026-05-04 13:21 37.99420 -4.48456 9997 ft 153 kts 18°
2026-05-04 13:21 38.00386 -4.47889 9996 ft 153 kts 18°
2026-05-04 13:21 38.01347 -4.47323 9994 ft 152 kts 18°
2026-05-04 13:21 38.02310 -4.46757 9994 ft 153 kts 17°
2026-05-04 13:22 38.03274 -4.46190 9993 ft 153 kts 18°
2026-05-04 13:22 38.04237 -4.45623 9992 ft 152 kts 18°
2026-05-04 13:22 38.05202 -4.45056 9996 ft 153 kts 18°
2026-05-04 13:22 38.06167 -4.44488 9998 ft 153 kts 18°
2026-05-04 13:23 38.07132 -4.43920 9991 ft 152 kts 18°
2026-05-04 13:23 38.08095 -4.43352 9993 ft 153 kts 18°
2026-05-04 13:23 38.09065 -4.42781 9990 ft 154 kts 18°
2026-05-04 13:23 38.10035 -4.42208 9991 ft 153 kts 18°
2026-05-04 13:24 38.11005 -4.41637 9988 ft 154 kts 18°
2026-05-04 13:24 38.11973 -4.41066 9984 ft 154 kts 18°
2026-05-04 13:24 38.12941 -4.40496 9989 ft 153 kts 18°
2026-05-04 13:25 38.14866 -4.39359 9986 ft 153 kts 18°
2026-05-04 13:25 38.15821 -4.38797 9990 ft 154 kts 18°
2026-05-04 13:25 38.16812 -4.38214 9994 ft 160 kts 18°
2026-05-04 13:25 38.17836 -4.37608 9994 ft 162 kts 18°
2026-05-04 13:26 38.18864 -4.37000 9990 ft 164 kts 18°
2026-05-04 13:26 38.19904 -4.36384 9989 ft 166 kts 18°
2026-05-04 13:26 38.20951 -4.35765 9993 ft 166 kts 18°
2026-05-04 13:26 38.22000 -4.35144 9993 ft 166 kts 18°
2026-05-04 13:27 38.23050 -4.34522 9989 ft 166 kts 18°
2026-05-04 13:27 38.24103 -4.33900 9988 ft 167 kts 18°
2026-05-04 13:27 38.25153 -4.33278 9988 ft 167 kts 19°
2026-05-04 13:27 38.26205 -4.32655 9987 ft 167 kts 18°
2026-05-04 13:28 38.27259 -4.32031 9991 ft 167 kts 18°
2026-05-04 13:28 38.28315 -4.31405 9990 ft 167 kts 18°
2026-05-04 13:28 38.29367 -4.30781 9986 ft 167 kts 18°
2026-05-04 13:28 38.30421 -4.30156 9986 ft 167 kts 18°
2026-05-04 13:29 38.31476 -4.29530 9989 ft 167 kts 18°
2026-05-04 13:29 38.32534 -4.28903 9988 ft 168 kts 19°
2026-05-04 13:29 38.33595 -4.28272 9983 ft 167 kts 18°
2026-05-04 13:29 38.34642 -4.27650 9987 ft 166 kts 18°
2026-05-04 13:30 38.35689 -4.27029 9982 ft 166 kts 18°
2026-05-04 13:30 38.36741 -4.26405 9985 ft 167 kts 18°
2026-05-04 13:30 38.37798 -4.25777 9988 ft 169 kts 19°
2026-05-04 13:30 38.38866 -4.25142 9989 ft 170 kts 19°
2026-05-04 13:31 38.39934 -4.24506 9988 ft 170 kts 18°
2026-05-04 13:31 38.41008 -4.23867 9980 ft 170 kts 19°
2026-05-04 13:31 38.42082 -4.23228 9981 ft 171 kts 19°
2026-05-04 13:31 38.43162 -4.22585 9982 ft 174 kts 19°
2026-05-04 13:32 38.44259 -4.21933 9975 ft 173 kts 19°
2026-05-04 13:32 38.45340 -4.21286 9973 ft 170 kts 19°
2026-05-04 13:32 38.46399 -4.20656 9969 ft 170 kts 19°
2026-05-04 13:32 38.47467 -4.20020 9971 ft 170 kts 19°
2026-05-04 13:33 38.48535 -4.19384 9974 ft 169 kts 19°
2026-05-04 13:33 38.49611 -4.18742 9973 ft 171 kts 19°
2026-05-04 13:33 38.50694 -4.18096 9970 ft 171 kts 19°
2026-05-04 13:33 38.51766 -4.17455 9971 ft 170 kts 19°
2026-05-04 13:34 38.52838 -4.16815 9970 ft 170 kts 19°
2026-05-04 13:34 38.53903 -4.16179 9971 ft 169 kts 19°
2026-05-04 13:34 38.54973 -4.15540 9971 ft 170 kts 19°
2026-05-04 13:34 38.56040 -4.14902 9969 ft 169 kts 19°
2026-05-04 13:35 38.57107 -4.14265 9972 ft 170 kts 19°
2026-05-04 13:35 38.59250 -4.12982 9971 ft 169 kts 19°
2026-05-04 13:35 38.60319 -4.12343 9971 ft 170 kts 19°
2026-05-04 13:36 38.61391 -4.11701 9972 ft 170 kts 19°
2026-05-04 13:36 38.62458 -4.11061 9968 ft 168 kts 19°
2026-05-04 13:36 38.63517 -4.10428 9970 ft 168 kts 19°
2026-05-04 13:36 38.64561 -4.09802 9971 ft 168 kts 19°
2026-05-04 13:37 38.65634 -4.09159 9966 ft 168 kts 19°
2026-05-04 13:37 38.66678 -4.08533 9967 ft 168 kts 19°
2026-05-04 13:37 38.67737 -4.07898 9969 ft 168 kts 19°
2026-05-04 13:37 38.68454 -4.07468 9967 ft 169 kts 19°
2026-05-04 13:38 38.69864 -4.06621 9969 ft 169 kts 19°
2026-05-04 13:38 38.70929 -4.05982 9973 ft 170 kts 19°
2026-05-04 13:38 38.71998 -4.05339 9972 ft 170 kts 19°
2026-05-04 13:38 38.73072 -4.04722 9970 ft 168 kts 16°
2026-05-04 13:39 38.74155 -4.04143 9970 ft 169 kts 18°
2026-05-04 13:39 38.75228 -4.03541 9965 ft 169 kts 18°
2026-05-04 13:39 38.76306 -4.02947 9967 ft 169 kts 17°
2026-05-04 13:39 38.77390 -4.02354 9968 ft 169 kts 17°
2026-05-04 13:40 38.78470 -4.01763 9972 ft 169 kts 17°
2026-05-04 13:40 38.79555 -4.01170 9969 ft 170 kts 17°
2026-05-04 13:40 38.80639 -4.00576 9970 ft 168 kts 17°
2026-05-04 13:40 38.81715 -3.99987 9967 ft 169 kts 17°
2026-05-04 13:41 38.82798 -3.99394 9967 ft 170 kts 17°
2026-05-04 13:41 38.83882 -3.98801 9971 ft 169 kts 17°
2026-05-04 13:41 38.84967 -3.98205 9968 ft 170 kts 17°
2026-05-04 13:42 38.87139 -3.97014 9970 ft 170 kts 17°
2026-05-04 13:42 38.88223 -3.96419 9968 ft 170 kts 17°
2026-05-04 13:42 38.89307 -3.95824 9967 ft 170 kts 17°
2026-05-04 13:42 38.90395 -3.95227 9971 ft 170 kts 17°
2026-05-04 13:43 38.91483 -3.94629 9970 ft 170 kts 17°
2026-05-04 13:43 38.92571 -3.94031 9971 ft 170 kts 17°
2026-05-04 13:43 38.93663 -3.93431 9970 ft 171 kts 17°
2026-05-04 13:43 38.94756 -3.92831 9969 ft 171 kts 18°
2026-05-04 13:44 38.95846 -3.92230 9969 ft 170 kts 17°
2026-05-04 13:44 38.96930 -3.91634 9977 ft 170 kts 17°
2026-05-04 13:44 38.98019 -3.91035 9974 ft 170 kts 17°
2026-05-04 13:44 38.99106 -3.90437 9973 ft 170 kts 18°
2026-05-04 13:45 39.00193 -3.89838 9974 ft 170 kts 18°
2026-05-04 13:45 39.01282 -3.89238 9969 ft 171 kts 18°
2026-05-04 13:45 39.02373 -3.88636 9970 ft 170 kts 18°
2026-05-04 13:45 39.03460 -3.88036 9968 ft 170 kts 17°
2026-05-04 13:46 39.04546 -3.87438 9970 ft 170 kts 18°
2026-05-04 13:46 39.05635 -3.86837 9969 ft 171 kts 18°
2026-05-04 13:46 39.06729 -3.86233 9968 ft 171 kts 18°
2026-05-04 13:46 39.07808 -3.85637 9970 ft 171 kts 18°
2026-05-04 13:47 39.08918 -3.85024 9969 ft 171 kts 18°
2026-05-04 13:47 39.09994 -3.84429 9970 ft 171 kts 18°
2026-05-04 13:47 39.11096 -3.83820 9965 ft 170 kts 18°
2026-05-04 13:47 39.12172 -3.83226 9971 ft 170 kts 18°
2026-05-04 13:48 39.13261 -3.82623 9968 ft 170 kts 18°
2026-05-04 13:48 39.14349 -3.82021 9968 ft 170 kts 18°
2026-05-04 13:48 39.15438 -3.81418 9961 ft 170 kts 18°
2026-05-04 13:48 39.16529 -3.80815 9964 ft 171 kts 17°
2026-05-04 13:49 39.17621 -3.80210 9966 ft 170 kts 18°
2026-05-04 13:49 39.18711 -3.79605 9969 ft 171 kts 18°
2026-05-04 13:49 39.19804 -3.79000 9965 ft 171 kts 17°
2026-05-04 13:49 39.20901 -3.78392 9966 ft 172 kts 18°
2026-05-04 13:50 39.21999 -3.77782 9965 ft 172 kts 18°
2026-05-04 13:50 39.23101 -3.77171 9962 ft 173 kts 17°
2026-05-04 13:50 39.24208 -3.76558 9964 ft 173 kts 18°
2026-05-04 13:50 39.25315 -3.75943 9967 ft 174 kts 18°
2026-05-04 13:51 39.26426 -3.75325 9961 ft 174 kts 17°
2026-05-04 13:51 39.27532 -3.74713 9959 ft 172 kts 18°
2026-05-04 13:51 39.28633 -3.74098 9962 ft 173 kts 18°
2026-05-04 13:51 39.29739 -3.73484 9962 ft 174 kts 18°
2026-05-04 13:52 39.31959 -3.72250 9961 ft 173 kts 17°
2026-05-04 13:52 39.33072 -3.71630 9958 ft 174 kts 18°
2026-05-04 13:52 39.34185 -3.71010 9952 ft 173 kts 18°
2026-05-04 13:53 39.35298 -3.70391 9954 ft 175 kts 18°
2026-05-04 13:53 39.36413 -3.69770 9953 ft 174 kts 18°
2026-05-04 13:53 39.37520 -3.69153 9956 ft 173 kts 18°
2026-05-04 13:54 39.39733 -3.67919 9953 ft 173 kts 18°
2026-05-04 13:54 39.40837 -3.67302 9951 ft 172 kts 18°
2026-05-04 13:54 39.43026 -3.66082 9949 ft 171 kts 18°
2026-05-04 13:55 39.44120 -3.65471 9949 ft 171 kts 18°
2026-05-04 13:55 39.46294 -3.64256 9947 ft 172 kts 18°
2026-05-04 13:55 39.47389 -3.63643 9951 ft 172 kts 18°
2026-05-04 13:56 39.48489 -3.63029 9951 ft 172 kts 18°
2026-05-04 13:56 39.49591 -3.62412 9954 ft 172 kts 18°
2026-05-04 13:56 39.51791 -3.61181 9948 ft 172 kts 18°
2026-05-04 13:57 39.52886 -3.60567 9949 ft 172 kts 18°
2026-05-04 13:57 39.53981 -3.59954 9948 ft 172 kts 19°
2026-05-04 13:58 39.56887 -3.58325 9953 ft 171 kts 18°
2026-05-04 13:58 39.59081 -3.57094 9947 ft 172 kts 19°
2026-05-04 13:58 39.60174 -3.56481 9952 ft 171 kts 19°
2026-05-04 13:59 39.61267 -3.55867 9950 ft 171 kts 19°
2026-05-04 13:59 39.62360 -3.55254 9952 ft 171 kts 19°
2026-05-04 13:59 39.64548 -3.54023 9955 ft 171 kts 19°
2026-05-04 14:00 39.65640 -3.53410 9952 ft 171 kts 19°
2026-05-04 14:00 39.67824 -3.52181 9947 ft 171 kts 19°
2026-05-04 14:00 39.68915 -3.51568 9957 ft 171 kts 19°
2026-05-04 14:01 39.70009 -3.50952 9948 ft 172 kts 19°
2026-05-04 14:01 39.71104 -3.50335 9950 ft 172 kts 19°
2026-05-04 14:01 39.73298 -3.49098 9954 ft 172 kts 19°
2026-05-04 14:02 39.74396 -3.48479 9952 ft 172 kts 19°
2026-05-04 14:02 39.75497 -3.47859 9950 ft 172 kts 19°
2026-05-04 14:02 39.76597 -3.47248 9953 ft 171 kts 17°
2026-05-04 14:02 39.77739 -3.47078 9937 ft 163 kts 347°
2026-05-04 14:03 39.78772 -3.47506 9942 ft 155 kts 324°
2026-05-04 14:03 39.79580 -3.48385 9942 ft 150 kts 307°
2026-05-04 14:03 39.80310 -3.49354 9938 ft 151 kts 309°
2026-05-04 14:03 39.81047 -3.50323 9946 ft 150 kts 308°
2026-05-04 14:04 39.82519 -3.52266 9941 ft 151 kts 308°
2026-05-04 14:04 39.83258 -3.53243 9937 ft 151 kts 308°
2026-05-04 14:04 39.83995 -3.54217 9941 ft 151 kts 308°
2026-05-04 14:05 39.85469 -3.56166 9948 ft 151 kts 309°
2026-05-04 14:05 39.86205 -3.57138 9948 ft 151 kts 309°
2026-05-04 14:05 39.86941 -3.58114 9945 ft 151 kts 309°
2026-05-04 14:06 39.87678 -3.59089 9938 ft 151 kts 309°
2026-05-04 14:06 39.88414 -3.60064 9945 ft 151 kts 309°
2026-05-04 14:06 39.89148 -3.61037 9946 ft 150 kts 308°
2026-05-04 14:06 39.89881 -3.62007 9945 ft 150 kts 309°
2026-05-04 14:07 39.90613 -3.62978 9947 ft 150 kts 308°
2026-05-04 14:07 39.91344 -3.63947 9947 ft 150 kts 308°
2026-05-04 14:07 39.92077 -3.64919 9943 ft 150 kts 308°
2026-05-04 14:07 39.92811 -3.65894 9944 ft 151 kts 309°
2026-05-04 14:08 39.93547 -3.66869 9942 ft 151 kts 308°
2026-05-04 14:08 39.94282 -3.67846 9948 ft 151 kts 308°
2026-05-04 14:08 39.95014 -3.68819 9952 ft 150 kts 308°
2026-05-04 14:08 39.95735 -3.69776 9952 ft 150 kts 308°
2026-05-04 14:09 39.97208 -3.71734 9950 ft 153 kts 308°
2026-05-04 14:09 39.97948 -3.72725 9953 ft 153 kts 309°
2026-05-04 14:10 39.99396 -3.74645 9954 ft 152 kts 308°
2026-05-04 14:10 40.00129 -3.75621 9951 ft 151 kts 308°
2026-05-04 14:10 40.00863 -3.76598 9955 ft 150 kts 308°
2026-05-04 14:10 40.01592 -3.77568 9953 ft 150 kts 309°
2026-05-04 14:11 40.02322 -3.78543 9951 ft 150 kts 308°
2026-05-04 14:11 40.03796 -3.80510 9956 ft 155 kts 308°
2026-05-04 14:11 40.04557 -3.81525 9960 ft 157 kts 308°
2026-05-04 14:12 40.05322 -3.82543 9960 ft 158 kts 309°
2026-05-04 14:12 40.06091 -3.83570 9966 ft 158 kts 308°
2026-05-04 14:12 40.07635 -3.85632 9962 ft 159 kts 308°
2026-05-04 14:13 40.08407 -3.86664 9966 ft 159 kts 308°
2026-05-04 14:13 40.09181 -3.87699 9961 ft 159 kts 308°
2026-05-04 14:13 40.09955 -3.88733 9964 ft 159 kts 309°
2026-05-04 14:13 40.10730 -3.89769 9963 ft 159 kts 309°
2026-05-04 14:14 40.11500 -3.90799 9961 ft 158 kts 308°
2026-05-04 14:14 40.13033 -3.92852 9961 ft 158 kts 308°
2026-05-04 14:14 40.13800 -3.93878 9964 ft 158 kts 309°
2026-05-04 14:15 40.15342 -3.95943 9966 ft 159 kts 309°
2026-05-04 14:15 40.16894 -3.98027 9963 ft 160 kts 309°
2026-05-04 14:16 40.18434 -4.00093 9960 ft 158 kts 309°
2026-05-04 14:16 40.19198 -4.01118 9959 ft 157 kts 309°
2026-05-04 14:17 40.20721 -4.03163 9959 ft 157 kts 309°
2026-05-04 14:17 40.21480 -4.04184 9956 ft 157 kts 309°
2026-05-04 14:17 40.22996 -4.06223 9958 ft 158 kts 309°
2026-05-04 14:18 40.23765 -4.07257 9960 ft 159 kts 309°
2026-05-04 14:18 40.25305 -4.09330 9961 ft 159 kts 309°
2026-05-04 14:19 40.26841 -4.11399 9957 ft 158 kts 309°
2026-05-04 14:19 40.27606 -4.12430 9956 ft 157 kts 309°
2026-05-04 14:19 40.28368 -4.13458 9956 ft 158 kts 309°
2026-05-04 14:19 40.29133 -4.14489 9956 ft 158 kts 309°
2026-05-04 14:20 40.29899 -4.15524 9957 ft 158 kts 309°
2026-05-04 14:20 40.30666 -4.16558 9956 ft 158 kts 309°
2026-05-04 14:20 40.31434 -4.17595 9958 ft 159 kts 309°
2026-05-04 14:21 40.32975 -4.19676 9960 ft 160 kts 309°
2026-05-04 14:21 40.33746 -4.20717 9989 ft 158 kts 309°
2026-05-04 14:21 40.34502 -4.21738 10030 ft 156 kts 309°
2026-05-04 14:21 40.35252 -4.22754 10079 ft 154 kts 310°
2026-05-04 14:22 40.35998 -4.23763 10122 ft 154 kts 309°
2026-05-04 14:22 40.36743 -4.24771 10188 ft 153 kts 309°
2026-05-04 14:22 40.37535 -4.25703 10260 ft 153 kts 314°
2026-05-04 14:22 40.38326 -4.26635 10327 ft 153 kts 313°
2026-05-04 14:23 40.39912 -4.28497 10479 ft 153 kts 313°
2026-05-04 14:23 40.40705 -4.29424 10551 ft 152 kts 314°
2026-05-04 14:23 40.41497 -4.30352 10629 ft 153 kts 313°
2026-05-04 14:24 40.42290 -4.31280 10701 ft 153 kts 313°
2026-05-04 14:24 40.43082 -4.32207 10776 ft 153 kts 313°
2026-05-04 14:24 40.43873 -4.33133 10854 ft 152 kts 313°
2026-05-04 14:24 40.44663 -4.34058 10928 ft 152 kts 313°
2026-05-04 14:25 40.45454 -4.34985 11003 ft 152 kts 313°
2026-05-04 14:25 40.47033 -4.36836 11153 ft 153 kts 313°
2026-05-04 14:25 40.47843 -4.37788 11061 ft 160 kts 314°
2026-05-04 14:26 40.48683 -4.38774 10967 ft 164 kts 314°
2026-05-04 14:26 40.49533 -4.39769 10942 ft 162 kts 314°
2026-05-04 14:26 40.50367 -4.40748 10949 ft 160 kts 314°
2026-05-04 14:26 40.51194 -4.41719 10946 ft 159 kts 314°
2026-05-04 14:27 40.52017 -4.42686 10948 ft 159 kts 314°
2026-05-04 14:27 40.52839 -4.43652 10943 ft 159 kts 314°
2026-05-04 14:27 40.53661 -4.44620 10949 ft 159 kts 314°
2026-05-04 14:27 40.54486 -4.45590 10948 ft 159 kts 314°
2026-05-04 14:28 40.55309 -4.46557 10952 ft 159 kts 314°
2026-05-04 14:28 40.56133 -4.47528 10949 ft 159 kts 314°
2026-05-04 14:28 40.56956 -4.48496 10951 ft 159 kts 314°
2026-05-04 14:28 40.57777 -4.49463 10947 ft 159 kts 313°
2026-05-04 14:29 40.59423 -4.51403 10955 ft 159 kts 314°
2026-05-04 14:29 40.61078 -4.53354 10955 ft 160 kts 314°
2026-05-04 14:30 40.61894 -4.54318 10955 ft 160 kts 314°
2026-05-04 14:30 40.62723 -4.55296 10956 ft 160 kts 314°
2026-05-04 14:30 40.64379 -4.57252 10957 ft 160 kts 313°
2026-05-04 14:31 40.65208 -4.58230 10957 ft 160 kts 314°
2026-05-04 14:31 40.66863 -4.60187 10958 ft 159 kts 314°
2026-05-04 14:32 40.68512 -4.62138 10955 ft 159 kts 313°
2026-05-04 14:32 40.69336 -4.63113 10953 ft 159 kts 313°
2026-05-04 14:32 40.70160 -4.64089 10957 ft 159 kts 313°
2026-05-04 14:32 40.70985 -4.65066 10952 ft 160 kts 313°
2026-05-04 14:33 40.71810 -4.66043 10957 ft 159 kts 313°
2026-05-04 14:33 40.72633 -4.67019 10953 ft 160 kts 313°
2026-05-04 14:33 40.73461 -4.68001 10954 ft 160 kts 313°
2026-05-04 14:33 40.74288 -4.68982 10958 ft 160 kts 313°
2026-05-04 14:34 40.75116 -4.69965 10954 ft 159 kts 313°
2026-05-04 14:34 40.75941 -4.70943 10961 ft 160 kts 313°
2026-05-04 14:34 40.76766 -4.71922 10955 ft 159 kts 313°
2026-05-04 14:34 40.77588 -4.72899 10959 ft 159 kts 313°
2026-05-04 14:35 40.78410 -4.73875 10956 ft 159 kts 313°
2026-05-04 14:35 40.79233 -4.74854 10955 ft 159 kts 313°
2026-05-04 14:35 40.80055 -4.75831 10952 ft 159 kts 313°
2026-05-04 14:35 40.80877 -4.76809 10953 ft 159 kts 313°
2026-05-04 14:36 40.81700 -4.77788 10958 ft 159 kts 313°
2026-05-04 14:36 40.82522 -4.78767 10957 ft 159 kts 313°
2026-05-04 14:36 40.83345 -4.79747 10956 ft 159 kts 313°
2026-05-04 14:36 40.84166 -4.80725 10958 ft 159 kts 313°
2026-05-04 14:37 40.84988 -4.81704 10959 ft 159 kts 313°
2026-05-04 14:37 40.85811 -4.82684 10956 ft 159 kts 313°
2026-05-04 14:37 40.86631 -4.83663 10960 ft 159 kts 313°
2026-05-04 14:37 40.87453 -4.84643 10965 ft 159 kts 313°
2026-05-04 14:38 40.88275 -4.85623 10958 ft 159 kts 313°
2026-05-04 14:38 40.89095 -4.86602 10961 ft 159 kts 313°
2026-05-04 14:38 40.89916 -4.87582 10966 ft 159 kts 313°
2026-05-04 14:38 40.90737 -4.88563 10958 ft 159 kts 313°
2026-05-04 14:39 40.91560 -4.89546 10963 ft 159 kts 313°
2026-05-04 14:39 40.92381 -4.90527 10960 ft 159 kts 314°
2026-05-04 14:39 40.93203 -4.91510 10957 ft 159 kts 313°
2026-05-04 14:40 40.94837 -4.93465 10957 ft 160 kts 313°
2026-05-04 14:40 40.95661 -4.94452 10961 ft 160 kts 314°
2026-05-04 14:40 40.96485 -4.95438 10960 ft 160 kts 313°
2026-05-04 14:40 40.97308 -4.96423 10961 ft 160 kts 313°
2026-05-04 14:41 40.98132 -4.97411 10960 ft 160 kts 314°
2026-05-04 14:41 40.98957 -4.98400 10965 ft 160 kts 314°
2026-05-04 14:41 41.00604 -5.00375 10957 ft 160 kts 314°
2026-05-04 14:42 41.02256 -5.02357 10960 ft 160 kts 313°
2026-05-04 14:42 41.03080 -5.03346 10960 ft 160 kts 314°
2026-05-04 14:42 41.03638 -5.04016 10954 ft 160 kts 313°
2026-05-04 14:43 41.04730 -5.05329 10960 ft 160 kts 313°
2026-05-04 14:43 41.05555 -5.06320 10964 ft 160 kts 313°
2026-05-04 14:43 41.06112 -5.06991 10963 ft 160 kts 313°
2026-05-04 14:43 41.06937 -5.07982 10962 ft 160 kts 313°
2026-05-04 14:44 41.07761 -5.08974 10965 ft 160 kts 313°
2026-05-04 14:44 41.08587 -5.09969 10968 ft 160 kts 314°
2026-05-04 14:44 41.09413 -5.10962 10965 ft 160 kts 314°
2026-05-04 14:44 41.10238 -5.11956 10965 ft 160 kts 313°
2026-05-04 14:45 41.11052 -5.12936 10973 ft 160 kts 313°
2026-05-04 14:45 41.11887 -5.13942 10966 ft 160 kts 313°
2026-05-04 14:45 41.12700 -5.14924 10968 ft 160 kts 313°
2026-05-04 14:45 41.13525 -5.15919 10973 ft 160 kts 313°
2026-05-04 14:46 41.14348 -5.16911 10973 ft 160 kts 313°
2026-05-04 14:46 41.15168 -5.17901 10966 ft 159 kts 313°
2026-05-04 14:46 41.15987 -5.18890 10966 ft 159 kts 313°
2026-05-04 14:46 41.16818 -5.19893 10967 ft 159 kts 313°
2026-05-04 14:47 41.17638 -5.20884 10969 ft 160 kts 313°
2026-05-04 14:47 41.18449 -5.21864 10974 ft 160 kts 313°
2026-05-04 14:47 41.19270 -5.22858 10969 ft 160 kts 313°
2026-05-04 14:47 41.20093 -5.23852 10969 ft 160 kts 313°
2026-05-04 14:48 41.20916 -5.24848 10975 ft 160 kts 313°
2026-05-04 14:48 41.21738 -5.25843 10966 ft 160 kts 313°
2026-05-04 14:48 41.22560 -5.26838 10967 ft 160 kts 313°
2026-05-04 14:48 41.23382 -5.27834 10968 ft 160 kts 313°
2026-05-04 14:49 41.24204 -5.28829 10971 ft 160 kts 313°
2026-05-04 14:49 41.25026 -5.29827 10963 ft 160 kts 313°
2026-05-04 14:49 41.25851 -5.30828 10969 ft 161 kts 313°
2026-05-04 14:49 41.26679 -5.31831 10961 ft 161 kts 313°
2026-05-04 14:50 41.27509 -5.32838 10958 ft 161 kts 313°
2026-05-04 14:50 41.28338 -5.33844 10967 ft 162 kts 313°
2026-05-04 14:50 41.29169 -5.34854 10959 ft 162 kts 313°
2026-05-04 14:50 41.30001 -5.35865 10957 ft 162 kts 313°
2026-05-04 14:51 41.30835 -5.36878 10968 ft 162 kts 313°
2026-05-04 14:51 41.31668 -5.37890 10958 ft 162 kts 313°
2026-05-04 14:51 41.32498 -5.38899 10959 ft 161 kts 313°
2026-05-04 14:51 41.33327 -5.39908 10959 ft 161 kts 313°
2026-05-04 14:52 41.34152 -5.40911 10960 ft 161 kts 313°
2026-05-04 14:52 41.34979 -5.41918 10954 ft 161 kts 313°
2026-05-04 14:52 41.35805 -5.42924 10956 ft 161 kts 313°
2026-05-04 14:52 41.36631 -5.43932 10957 ft 161 kts 313°
2026-05-04 14:53 41.37459 -5.44939 10955 ft 161 kts 313°
2026-05-04 14:53 41.38286 -5.45947 10959 ft 161 kts 312°
2026-05-04 14:53 41.39109 -5.46952 10955 ft 160 kts 313°
2026-05-04 14:53 41.39932 -5.47956 10954 ft 161 kts 313°
2026-05-04 14:54 41.40757 -5.48963 10959 ft 161 kts 313°
2026-05-04 14:54 41.41589 -5.49978 10955 ft 165 kts 313°
2026-05-04 14:54 41.42449 -5.51032 10955 ft 170 kts 313°
2026-05-04 14:54 41.43325 -5.52101 10956 ft 171 kts 313°
2026-05-04 14:55 41.44192 -5.53160 10956 ft 172 kts 313°
2026-05-04 14:55 41.45088 -5.54254 10965 ft 173 kts 313°
2026-05-04 14:55 41.45976 -5.55340 10955 ft 173 kts 312°
2026-05-04 14:55 41.46863 -5.56426 10954 ft 174 kts 313°
2026-05-04 14:56 41.47753 -5.57514 10956 ft 173 kts 313°
2026-05-04 14:56 41.48616 -5.58570 11153 ft 170 kts 312°
2026-05-04 14:56 41.49485 -5.59635 11381 ft 170 kts 313°
2026-05-04 14:56 41.50354 -5.60702 11615 ft 170 kts 313°
2026-05-04 14:57 41.51224 -5.61769 11838 ft 170 kts 313°
2026-05-04 14:57 41.52107 -5.62851 12066 ft 170 kts 313°
2026-05-04 14:57 41.53064 -5.63744 12276 ft 175 kts 333°
2026-05-04 14:57 41.54284 -5.63999 12497 ft 181 kts 355°
2026-05-04 14:58 41.55540 -5.63999 12735 ft 180 kts 354°
2026-05-04 14:58 41.56811 -5.64010 12882 ft 186 kts 355°
2026-05-04 14:58 41.58119 -5.64024 12979 ft 190 kts 355°
2026-05-04 14:58 41.59465 -5.64040 12976 ft 196 kts 355°
2026-05-04 14:59 41.60836 -5.64054 12977 ft 197 kts 355°
2026-05-04 14:59 41.62193 -5.64065 12972 ft 193 kts 355°
2026-05-04 14:59 41.64851 -5.64095 12968 ft 190 kts 355°
2026-05-04 15:00 41.66168 -5.64109 12968 ft 189 kts 356°
2026-05-04 15:00 41.67480 -5.64123 12966 ft 189 kts 355°
2026-05-04 15:00 41.68793 -5.64136 12967 ft 189 kts 355°
2026-05-04 15:01 41.71421 -5.64164 12969 ft 189 kts 355°
2026-05-04 15:01 41.72734 -5.64180 12967 ft 189 kts 356°
2026-05-04 15:01 41.74050 -5.64193 12970 ft 189 kts 355°
2026-05-04 15:01 41.75366 -5.64206 12970 ft 189 kts 355°
2026-05-04 15:02 41.76678 -5.64220 12968 ft 189 kts 356°
2026-05-04 15:02 41.77996 -5.64235 12973 ft 189 kts 356°
2026-05-04 15:02 41.79313 -5.64249 12967 ft 189 kts 355°
2026-05-04 15:02 41.80629 -5.64263 12972 ft 189 kts 355°
2026-05-04 15:03 41.81946 -5.64278 12970 ft 189 kts 356°
2026-05-04 15:03 41.83261 -5.64291 12968 ft 189 kts 355°
2026-05-04 15:03 41.84580 -5.64305 12968 ft 190 kts 356°
2026-05-04 15:03 41.85899 -5.64319 12971 ft 189 kts 356°
2026-05-04 15:04 41.87216 -5.64333 12967 ft 189 kts 355°
2026-05-04 15:04 41.88533 -5.64348 12965 ft 189 kts 355°
2026-05-04 15:04 41.89852 -5.64362 12968 ft 190 kts 355°
2026-05-04 15:04 41.91173 -5.64377 12967 ft 190 kts 355°
2026-05-04 15:05 41.92493 -5.64391 12972 ft 190 kts 355°
2026-05-04 15:05 41.93818 -5.64405 12975 ft 191 kts 356°
2026-05-04 15:05 41.95149 -5.64418 12972 ft 191 kts 356°
2026-05-04 15:05 41.96480 -5.64433 12965 ft 192 kts 356°
2026-05-04 15:06 41.97803 -5.64447 12973 ft 192 kts 356°
2026-05-04 15:06 41.99155 -5.64460 12974 ft 192 kts 356°
2026-05-04 15:06 42.00490 -5.64476 12973 ft 192 kts 356°
2026-05-04 15:07 42.03157 -5.64488 12972 ft 191 kts 356°
2026-05-04 15:07 42.04489 -5.64490 12970 ft 191 kts 356°
2026-05-04 15:07 42.05819 -5.64491 12971 ft 191 kts 356°
2026-05-04 15:07 42.07147 -5.64495 12966 ft 191 kts 356°
2026-05-04 15:08 42.08475 -5.64498 12967 ft 190 kts 356°
2026-05-04 15:08 42.09798 -5.64501 12971 ft 190 kts 356°
2026-05-04 15:08 42.11123 -5.64504 12967 ft 191 kts 356°
2026-05-04 15:08 42.12453 -5.64507 12967 ft 191 kts 356°
2026-05-04 15:09 42.13780 -5.64510 12972 ft 191 kts 356°
2026-05-04 15:09 42.15107 -5.64513 12965 ft 191 kts 356°
2026-05-04 15:09 42.16437 -5.64516 12968 ft 191 kts 356°
2026-05-04 15:10 42.19066 -5.64522 12974 ft 191 kts 356°
2026-05-04 15:10 42.20397 -5.64525 12968 ft 192 kts 356°
2026-05-04 15:10 42.23063 -5.64531 12968 ft 191 kts 356°
2026-05-04 15:11 42.24398 -5.64534 12969 ft 191 kts 356°
2026-05-04 15:11 42.25727 -5.64537 12967 ft 191 kts 356°
2026-05-04 15:11 42.27061 -5.64540 12967 ft 192 kts 356°
2026-05-04 15:11 42.28391 -5.64543 12958 ft 191 kts 356°
2026-05-04 15:12 42.29723 -5.64546 12973 ft 192 kts 356°
2026-05-04 15:12 42.31056 -5.64549 12974 ft 192 kts 356°
2026-05-04 15:12 42.32389 -5.64553 12976 ft 192 kts 356°
2026-05-04 15:12 42.33720 -5.64555 12976 ft 191 kts 356°
2026-05-04 15:13 42.35053 -5.64559 12979 ft 192 kts 356°
2026-05-04 15:13 42.36385 -5.64561 12977 ft 191 kts 356°
2026-05-04 15:13 42.37718 -5.64564 12978 ft 191 kts 356°
2026-05-04 15:13 42.39049 -5.64568 12982 ft 191 kts 356°
2026-05-04 15:14 42.40383 -5.64571 12983 ft 192 kts 356°
2026-05-04 15:14 42.41714 -5.64574 12982 ft 192 kts 356°
2026-05-04 15:14 42.43049 -5.64576 12983 ft 192 kts 356°
2026-05-04 15:14 42.44386 -5.64580 12988 ft 192 kts 356°
2026-05-04 15:15 42.45718 -5.64583 12987 ft 192 kts 356°
2026-05-04 15:15 42.47054 -5.64585 12988 ft 192 kts 356°
2026-05-04 15:15 42.48390 -5.64588 12979 ft 192 kts 356°
2026-05-04 15:16 42.51058 -5.64595 12982 ft 192 kts 356°
2026-05-04 15:16 42.52394 -5.64598 12980 ft 192 kts 356°
2026-05-04 15:16 42.55088 -5.64605 12749 ft 196 kts 356°
2026-05-04 15:17 42.56455 -5.64608 12386 ft 196 kts 356°
2026-05-04 15:17 42.59076 -5.63858 11589 ft 201 kts 29°
2026-05-04 15:17 42.60049 -5.62565 11069 ft 194 kts 53°
2026-05-04 15:18 42.60657 -5.60932 10563 ft 191 kts 65°
2026-05-04 15:18 42.61209 -5.59291 10079 ft 191 kts 64°
2026-05-04 15:18 42.61771 -5.57656 9570 ft 191 kts 64°
2026-05-04 15:19 42.62884 -5.54423 8535 ft 189 kts 64°
2026-05-04 15:19 42.63439 -5.52805 8020 ft 188 kts 64°
2026-05-04 15:19 42.64514 -5.49667 7027 ft 178 kts 64°
2026-05-04 15:20 42.65032 -5.48155 6533 ft 175 kts 64°
2026-05-04 15:20 42.65540 -5.46670 6028 ft 173 kts 64°
2026-05-04 15:20 42.66041 -5.45208 5601 ft 167 kts 63°
2026-05-04 15:20 42.66541 -5.43748 5268 ft 173 kts 63°
2026-05-04 15:21 42.67039 -5.42291 5246 ft 169 kts 63°
2026-05-04 15:21 42.67636 -5.40927 5244 ft 168 kts 46°
2026-05-04 15:21 42.69634 -5.39428 5240 ft 165 kts
2026-05-04 15:22 42.70774 -5.39432 5242 ft 164 kts 349°
2026-05-04 15:22 42.71845 -5.39942 5243 ft 164 kts 331°
2026-05-04 15:22 42.73339 -5.42201 5243 ft 163 kts 294°
2026-05-04 15:23 42.73599 -5.43694 5247 ft 163 kts 275°
2026-05-04 15:23 42.73486 -5.45227 5240 ft 165 kts 256°
2026-05-04 15:23 42.73006 -5.46633 5245 ft 166 kts 237°
2026-05-04 15:23 42.72219 -5.47786 5252 ft 167 kts 224°
2026-05-04 15:24 42.70536 -5.49989 5190 ft 171 kts 226°
2026-05-04 15:24 42.68936 -5.52088 4982 ft 147 kts 226°
2026-05-04 15:25 42.68220 -5.53028 4889 ft 140 kts 226°
2026-05-04 15:25 42.67538 -5.53923 4808 ft 134 kts 226°
2026-05-04 15:25 42.66870 -5.54798 4712 ft 133 kts 227°
2026-05-04 15:26 42.65561 -5.56514 4438 ft 122 kts 227°
2026-05-04 15:26 42.64965 -5.57297 4272 ft 118 kts 226°
2026-05-04 15:26 42.63813 -5.58809 3986 ft 113 kts 227°
2026-05-04 15:27 42.63253 -5.59546 3846 ft 112 kts 226°
2026-05-04 15:27 42.62174 -5.60990 3591 ft 96 kts 228°
2026-05-04 15:28 42.61378 -5.62155 3352 ft 81 kts 230°
2026-05-04 15:28 42.61108 -5.62515 3290 ft 83 kts 228°
2026-05-04 15:28 42.60313 -5.63622 3084 ft 81 kts 230°
2026-05-04 15:29 42.59978 -5.64083 3010 ft 75 kts 229°
2026-05-04 15:30 42.59298 -5.64764 2995 ft 17 kts 135°
2026-05-04 15:30 42.59133 -5.64630 3000 ft 0 kts 221°